| time (UTC) | temp F | wind direction | speed MPH | gust MPH | rain 1hr in | rain 24hr in | rain mn in | humidity % | barometer mb |
| 20260906223839 | 66 | 26 | 5.0 | 8.0 | 0.00 | 0.00 | 0.00 | 70 | 1018.9 |
| 20260906223335 | 66 | 348 | 4.0 | 4.0 | 0.00 | 0.00 | 0.00 | 70 | 1019.0 |
| 20260906222833 | 66 | 333 | 4.0 | 6.0 | 0.00 | 0.00 | 0.00 | 70 | 1019.1 |
| 20260906222333 | 66 | 321 | 3.0 | 4.0 | 0.00 | 0.00 | 0.00 | 70 | 1019.1 |
| 20260906221830 | 66 | 351 | 3.0 | 7.0 | 0.00 | 0.00 | 0.00 | 70 | 1019.2 |
| 20260906221330 | 67 | 323 | 5.0 | 7.0 | 0.00 | 0.00 | 0.00 | 69 | 1019.1 |
| 20260906220825 | 67 | 305 | 1.0 | 2.0 | 0.00 | 0.00 | 0.00 | 69 | 1019.1 |
| 20260906220321 | 67 | 307 | 3.0 | 6.0 | 0.00 | 0.00 | 0.00 | 69 | 1018.9 |
| 20260906215819 | 67 | 325 | 3.0 | 7.0 | 0.00 | 0.00 | 0.00 | 69 | 1019.1 |
| 20260906215315 | 67 | 317 | 2.0 | 3.0 | 0.00 | 0.00 | 0.00 | 68 | 1019.0 |
| 20260906214812 | 67 | 318 | 1.0 | 7.0 | 0.00 | 0.00 | 0.00 | 69 | 1019.0 |
| 20260906214307 | 67 | 310 | 2.0 | 6.0 | 0.00 | 0.00 | 0.00 | 67 | 1018.7 |
| 20260906213807 | 67 | 206 | 1.0 | 2.0 | 0.00 | 0.00 | 0.00 | 66 | 1019.0 |
| 20260906213307 | 67 | 316 | 1.0 | 4.0 | 0.00 | 0.00 | 0.00 | 67 | 1019.0 |
| 20260906212804 | 67 | 279 | 1.0 | 2.0 | 0.00 | 0.00 | 0.00 | 66 | 1019.1 |
| 20260906212300 | 67 | 281 | 0.0 | 3.0 | 0.00 | 0.00 | 0.00 | 67 | 1019.1 |
| 20260906211759 | 66 | 337 | 3.0 | 3.0 | 0.00 | 0.00 | 0.00 | 68 | 1019.2 |
| 20260906211254 | 66 | 310 | 1.0 | 4.0 | 0.00 | 0.00 | 0.00 | 67 | 1019.2 |
| 20260906210750 | 66 | 173 | 1.0 | 3.0 | 0.00 | 0.00 | 0.00 | 67 | 1019.1 |
| 20260906210244 | 66 | 259 | 0.0 | 2.0 | 0.00 | 0.00 | 0.00 | 67 | 1019.2 |
| 20260906205744 | 66 | 279 | 1.0 | 3.0 | 0.00 | 0.00 | 0.00 | 67 | 1019.1 |
| 20260906205241 | 66 | 319 | 1.0 | 3.0 | 0.00 | 0.00 | 0.00 | 67 | 1019.2 |
| 20260906204736 | 66 | 54 | 5.0 | 6.0 | 0.00 | 0.00 | 0.00 | 66 | 1019.2 |
| 20260906204235 | 66 | 302 | 2.0 | 4.0 | 0.00 | 0.00 | 0.00 | 68 | 1019.2 |
| 20260906203735 | 66 | 353 | 2.0 | 7.0 | 0.00 | 0.00 | 0.00 | 69 | 1019.4 |
| 20260906203230 | 65 | 77 | 2.0 | 3.0 | 0.00 | 0.00 | 0.00 | 69 | 1019.4 |
| 20260906202727 | 65 | 69 | 4.0 | 7.0 | 0.00 | 0.00 | 0.00 | 70 | 1019.4 |
| 20260906202227 | 65 | 67 | 4.0 | 7.0 | 0.00 | 0.00 | 0.00 | 68 | 1019.4 |
| 20260906201727 | 65 | 57 | 2.0 | 3.0 | 0.00 | 0.00 | 0.00 | 68 | 1019.4 |
| 20260906201226 | 65 | 329 | 3.0 | 3.0 | 0.00 | 0.00 | 0.00 | 70 | 1019.2 |
| 20260906200722 | 64 | 245 | 0.0 | 2.0 | 0.00 | 0.00 | 0.00 | 70 | 1019.3 |
| 20260906200218 | 64 | 102 | 3.0 | 6.0 | 0.00 | 0.00 | 0.00 | 72 | 1019.6 |
| 20260906195713 | 64 | 71 | 5.0 | 8.0 | 0.00 | 0.00 | 0.00 | 71 | 1019.7 |
| 20260906195209 | 64 | 61 | 1.0 | 2.0 | 0.00 | 0.00 | 0.00 | 72 | 1019.6 |
| 20260906194705 | 64 | 35 | 1.0 | 7.0 | 0.00 | 0.00 | 0.00 | 73 | 1019.7 |
| 20260906194200 | 64 | 47 | 4.0 | 7.0 | 0.00 | 0.00 | 0.00 | 73 | 1019.8 |
| 20260906193655 | 64 | 34 | 1.0 | 6.0 | 0.00 | 0.00 | 0.00 | 73 | 1019.8 |
| 20260906193150 | 64 | 359 | 1.0 | 4.0 | 0.00 | 0.00 | 0.00 | 73 | 1019.8 |
| 20260906192646 | 63 | 70 | 2.0 | 7.0 | 0.00 | 0.00 | 0.00 | 74 | 1020.0 |
| 20260906192145 | 63 | 44 | 3.0 | 4.0 | 0.00 | 0.00 | 0.00 | 75 | 1020.0 |
| 20260906191640 | 63 | 57 | 2.0 | 4.0 | 0.00 | 0.00 | 0.00 | 76 | 1019.8 |
| 20260906191139 | 63 | 55 | 2.0 | 4.0 | 0.00 | 0.00 | 0.00 | 75 | 1019.8 |
| 20260906190634 | 64 | 321 | 3.0 | 4.0 | 0.00 | 0.00 | 0.00 | 74 | 1020.1 |
| 20260906190129 | 64 | 332 | 3.0 | 4.0 | 0.00 | 0.00 | 0.00 | 74 | 1019.9 |
| 20260906185628 | 63 | 329 | 3.0 | 4.0 | 0.00 | 0.00 | 0.00 | 75 | 1020.0 |
| 20260906185127 | 63 | 22 | 2.0 | 4.0 | 0.00 | 0.00 | 0.00 | 75 | 1019.9 |
| 20260906184622 | 62 | 54 | 4.0 | 8.0 | 0.00 | 0.00 | 0.00 | 76 | 1020.0 |
| 20260906184118 | 63 | 64 | 5.0 | 7.0 | 0.00 | 0.00 | 0.00 | 75 | 1020.2 |
| 20260906183613 | 62 | 37 | 4.0 | 8.0 | 0.00 | 0.00 | 0.00 | 76 | 1020.2 |
| 20260906183109 | 61 | 32 | 3.0 | 6.0 | 0.00 | 0.00 | 0.00 | 76 | 1020.2 |
| 20260906182603 | 62 | 52 | 7.0 | 11.0 | 0.00 | 0.00 | 0.00 | 75 | 1020.4 |
| 20260906182100 | 62 | 358 | 4.0 | 6.0 | 0.00 | 0.00 | 0.00 | 77 | 1020.5 |
| 20260906181555 | 61 | 67 | 4.0 | 10.0 | 0.00 | 0.00 | 0.00 | 78 | 1020.4 |
| 20260906181051 | 60 | 26 | 3.0 | 4.0 | 0.00 | 0.00 | 0.00 | 80 | 1020.5 |
| 20260906180551 | 60 | 308 | 3.0 | 7.0 | 0.00 | 0.00 | 0.00 | 81 | 1020.8 |
| 20260906180049 | 60 | 65 | 6.0 | 10.0 | 0.00 | 0.00 | 0.00 | 84 | 1020.4 |
| 20260906175549 | 60 | 10 | 5.0 | 13.0 | 0.00 | 0.00 | 0.00 | 87 | 1019.7 |
| 20260906175044 | 60 | 50 | 7.0 | 10.0 | 0.00 | 0.00 | 0.00 | 86 | 1019.8 |
| 20260906174542 | 61 | 89 | 4.0 | 8.0 | 0.00 | 0.00 | 0.00 | 84 | 1020.0 |
| 20260906174037 | 60 | 13 | 2.0 | 4.0 | 0.00 | 0.00 | 0.00 | 85 | 1020.1 |
| 20260906173532 | 59 | 344 | 4.0 | 7.0 | 0.00 | 0.00 | 0.00 | 86 | 1020.6 |
| 20260906173029 | 59 | 340 | 5.0 | 9.0 | 0.00 | 0.00 | 0.00 | 85 | 1021.0 |
| 20260906172528 | 59 | 343 | 4.0 | 9.0 | 0.00 | 0.00 | 0.00 | 85 | 1021.2 |
| 20260906172024 | 58 | 341 | 4.0 | 11.0 | 0.00 | 0.00 | 0.00 | 85 | 1021.4 |
| 20260906171518 | 58 | 314 | 7.0 | 10.0 | 0.00 | 0.00 | 0.00 | 86 | 1021.7 |
| 20260906171014 | 57 | 347 | 5.0 | 10.0 | 0.00 | 0.00 | 0.00 | 86 | 1021.5 |
| 20260906170510 | 57 | 11 | 5.0 | 7.0 | 0.00 | 0.00 | 0.00 | 86 | 1021.5 |
| 20260906170008 | 57 | 359 | 9.0 | 11.0 | 0.00 | 0.00 | 0.00 | 86 | 1021.7 |
| 20260906165506 | 57 | 348 | 4.0 | 10.0 | 0.00 | 0.00 | 0.00 | 86 | 1021.7 |
| 20260906165000 | 57 | 354 | 4.0 | 8.0 | 0.00 | 0.00 | 0.00 | 86 | 1021.5 |
| 20260906164459 | 56 | 328 | 6.0 | 8.0 | 0.00 | 0.00 | 0.00 | 86 | 1021.5 |
| 20260906163956 | 56 | 4 | 6.0 | 10.0 | 0.00 | 0.00 | 0.00 | 87 | 1021.6 |
| 20260906163451 | 56 | 335 | 6.0 | 8.0 | 0.00 | 0.00 | 0.00 | 87 | 1021.6 |
| 20260906162950 | 56 | 325 | 4.0 | 9.0 | 0.00 | 0.00 | 0.00 | 87 | 1021.7 |
| 20260906162448 | 56 | 351 | 5.0 | 9.0 | 0.00 | 0.00 | 0.00 | 88 | 1021.6 |
| 20260906161943 | 56 | 350 | 4.0 | 8.0 | 0.00 | 0.00 | 0.00 | 88 | 1021.7 |
| 20260906161437 | 55 | 336 | 4.0 | 9.0 | 0.00 | 0.00 | 0.00 | 88 | 1021.7 |
| 20260906160931 | 55 | 16 | 7.0 | 11.0 | 0.00 | 0.00 | 0.00 | 88 | 1021.7 |
| 20260906160430 | 55 | 333 | 5.0 | 11.0 | 0.00 | 0.00 | 0.00 | 88 | 1021.7 |
| 20260906155928 | 55 | 349 | 5.0 | 8.0 | 0.00 | 0.00 | 0.00 | 87 | 1021.8 |
| 20260906155422 | 55 | 342 | 5.0 | 8.0 | 0.00 | 0.00 | 0.00 | 87 | 1022.0 |
| 20260906154919 | 55 | 335 | 8.0 | 11.0 | 0.00 | 0.00 | 0.00 | 88 | 1022.0 |
| 20260906154418 | 55 | 357 | 10.0 | 11.0 | 0.00 | 0.00 | 0.00 | 89 | 1021.8 |
| 20260906153917 | 55 | 352 | 8.0 | 13.0 | 0.00 | 0.00 | 0.00 | 90 | 1022.1 |
| 20260906153416 | 55 | 331 | 8.0 | 13.0 | 0.00 | 0.00 | 0.00 | 90 | 1022.1 |
| 20260906152911 | 55 | 350 | 10.0 | 14.0 | 0.00 | 0.00 | 0.00 | 89 | 1022.1 |
| 20260906152406 | 55 | 334 | 10.0 | 13.0 | 0.00 | 0.00 | 0.00 | 89 | 1022.2 |
| 20260906151906 | 56 | 325 | 7.0 | 14.0 | 0.00 | 0.00 | 0.00 | 88 | 1022.2 |
| 20260906151401 | 56 | 3 | 9.0 | 11.0 | 0.00 | 0.00 | 0.00 | 88 | 1022.4 |
| 20260906150857 | 56 | 327 | 6.0 | 9.0 | 0.00 | 0.00 | 0.00 | 87 | 1022.4 |
| 20260906150352 | 56 | 347 | 9.0 | 11.0 | 0.00 | 0.00 | 0.00 | 86 | 1022.3 |
| 20260906145851 | 57 | 332 | 8.0 | 9.0 | 0.00 | 0.00 | 0.00 | 86 | 1022.4 |
| 20260906145350 | 57 | 349 | 6.0 | 9.0 | 0.00 | 0.00 | 0.00 | 86 | 1022.6 |
| 20260906144845 | 59 | 319 | 6.0 | 9.0 | 0.00 | 0.00 | 0.00 | 84 | 1022.7 |
| 20260906144340 | 59 | 298 | 3.0 | 4.0 | 0.00 | 0.00 | 0.00 | 85 | 1022.6 |
| 20260906143840 | 60 | 249 | 3.0 | 4.0 | 0.00 | 0.00 | 0.00 | 84 | 1022.8 |
| 20260906143336 | 60 | 285 | 1.0 | 2.0 | 0.00 | 0.00 | 0.00 | 84 | 1022.7 |
| 20260906142832 | 60 | 294 | 1.0 | 2.0 | 0.00 | 0.00 | 0.00 | 83 | 1022.6 |
| 20260906142327 | 60 | 271 | 0.0 | 1.0 | 0.00 | 0.00 | 0.00 | 84 | 1022.3 |
| 20260906141826 | 60 | 302 | 1.0 | 2.0 | 0.00 | 0.00 | 0.00 | 83 | 1022.2 |
| 20260906141321 | 60 | 264 | 1.0 | 1.0 | 0.00 | 0.00 | 0.00 | 83 | 1022.1 |
| 20260906140819 | 60 | 343 | 2.0 | 4.0 | 0.00 | 0.00 | 0.00 | 84 | 1021.8 |
| 20260906140315 | 60 | 40 | 2.0 | 3.0 | 0.00 | 0.00 | 0.00 | 83 | 1022.1 |
| 20260906135812 | 60 | 51 | 2.0 | 8.0 | 0.00 | 0.00 | 0.00 | 84 | 1021.7 |
| 20260906135308 | 60 | 57 | 5.0 | 6.0 | 0.00 | 0.00 | 0.00 | 83 | 1022.1 |
| 20260906134803 | 60 | 48 | 4.0 | 4.0 | 0.00 | 0.00 | 0.00 | 83 | 1022.2 |
| 20260906134258 | 60 | 308 | 1.0 | 3.0 | 0.00 | 0.00 | 0.00 | 83 | 1022.2 |
| 20260906133753 | 60 | 52 | 2.0 | 6.0 | 0.00 | 0.00 | 0.00 | 84 | 1022.4 |
| 20260906133249 | 60 | 42 | 5.0 | 7.0 | 0.00 | 0.00 | 0.00 | 83 | 1022.0 |
| 20260906132744 | 60 | 67 | 4.0 | 6.0 | 0.00 | 0.00 | 0.00 | 83 | 1021.8 |
| 20260906132239 | 60 | 49 | 5.0 | 8.0 | 0.00 | 0.00 | 0.00 | 83 | 1021.7 |
| 20260906131735 | 59 | 75 | 2.0 | 7.0 | 0.00 | 0.00 | 0.00 | 84 | 1022.1 |
| 20260906131230 | 59 | 20 | 3.0 | 4.0 | 0.00 | 0.00 | 0.00 | 85 | 1022.0 |
| 20260906130726 | 59 | 234 | 1.0 | 2.0 | 0.00 | 0.00 | 0.00 | 85 | 1022.1 |
| 20260906130220 | 59 | 310 | 2.0 | 4.0 | 0.00 | 0.00 | 0.00 | 85 | 1022.1 |
| 20260906125719 | 59 | 290 | 2.0 | 6.0 | 0.00 | 0.00 | 0.00 | 85 | 1022.1 |
| 20260906125217 | 59 | 319 | 2.0 | 7.0 | 0.00 | 0.00 | 0.00 | 85 | 1022.0 |
| 20260906124712 | 59 | 345 | 3.0 | 4.0 | 0.00 | 0.00 | 0.00 | 85 | 1022.1 |
| 20260906124208 | 59 | 319 | 4.0 | 4.0 | 0.00 | 0.00 | 0.00 | 85 | 1022.2 |
| 20260906123706 | 58 | 344 | 2.0 | 6.0 | 0.00 | 0.00 | 0.00 | 85 | 1022.3 |
| 20260906123202 | 58 | 337 | 3.0 | 4.0 | 0.00 | 0.00 | 0.00 | 86 | 1022.2 |
| 20260906122701 | 58 | 353 | 3.0 | 6.0 | 0.00 | 0.00 | 0.00 | 86 | 1022.2 |
| 20260906122157 | 58 | 329 | 3.0 | 4.0 | 0.00 | 0.00 | 0.00 | 86 | 1022.2 |
| 20260906121653 | 58 | 348 | 3.0 | 7.0 | 0.00 | 0.00 | 0.00 | 85 | 1021.8 |
| 20260906121149 | 58 | 144 | 3.0 | 7.0 | 0.00 | 0.00 | 0.00 | 85 | 1021.5 |
| 20260906120645 | 58 | 336 | 4.0 | 6.0 | 0.00 | 0.00 | 0.00 | 85 | 1021.5 |
| 20260906120142 | 58 | 335 | 3.0 | 4.0 | 0.00 | 0.00 | 0.00 | 85 | 1021.7 |
| 20260906115642 | 58 | 355 | 4.0 | 6.0 | 0.00 | 0.00 | 0.00 | 85 | 1021.8 |
| 20260906115138 | 58 | 357 | 3.0 | 4.0 | 0.00 | 0.00 | 0.00 | 85 | 1021.7 |
| 20260906114636 | 58 | 322 | 3.0 | 7.0 | 0.00 | 0.00 | 0.00 | 85 | 1021.8 |
| 20260906114131 | 58 | 344 | 4.0 | 8.0 | 0.00 | 0.00 | 0.00 | 85 | 1021.7 |
| 20260906113631 | 59 | 355 | 6.0 | 9.0 | 0.00 | 0.00 | 0.00 | 85 | 1021.7 |
| 20260906113126 | 58 | 303 | 4.0 | 4.0 | 0.00 | 0.00 | 0.00 | 85 | 1021.8 |
| 20260906112625 | 58 | 14 | 5.0 | 7.0 | 0.00 | 0.00 | 0.00 | 84 | 1021.7 |
| 20260906112123 | 58 | 333 | 3.0 | 11.0 | 0.00 | 0.00 | 0.00 | 84 | 1021.6 |
| 20260906111621 | 58 | 332 | 4.0 | 8.0 | 0.00 | 0.00 | 0.00 | 84 | 1021.7 |
| 20260906111117 | 58 | 338 | 2.0 | 7.0 | 0.00 | 0.00 | 0.00 | 84 | 1021.7 |
| 20260906110618 | 58 | 323 | 3.0 | 4.0 | 0.00 | 0.00 | 0.00 | 84 | 1021.8 |
| 20260906110118 | 58 | 322 | 4.0 | 7.0 | 0.00 | 0.00 | 0.00 | 84 | 1021.8 |
| 20260906105612 | 58 | 351 | 4.0 | 7.0 | 0.00 | 0.00 | 0.00 | 84 | 1022.0 |
| 20260906105108 | 58 | 337 | 3.0 | 7.0 | 0.00 | 0.00 | 0.00 | 85 | 1022.1 |
| 20260906104607 | 58 | 352 | 4.0 | 6.0 | 0.00 | 0.00 | 0.00 | 85 | 1022.2 |
| 20260906104101 | 58 | 355 | 4.0 | 7.0 | 0.00 | 0.00 | 0.00 | 85 | 1022.0 |
| 20260906103600 | 58 | 342 | 4.0 | 6.0 | 0.00 | 0.00 | 0.00 | 85 | 1022.0 |
| 20260906103055 | 58 | 355 | 2.0 | 4.0 | 0.00 | 0.00 | 0.00 | 85 | 1022.0 |
| 20260906102555 | 58 | 318 | 4.0 | 9.0 | 0.00 | 0.00 | 0.00 | 85 | 1022.2 |
| 20260906102050 | 58 | 350 | 5.0 | 8.0 | 0.00 | 0.00 | 0.00 | 85 | 1022.0 |
| 20260906101544 | 58 | 337 | 4.0 | 8.0 | 0.00 | 0.00 | 0.00 | 85 | 1022.1 |
| 20260906101039 | 58 | 351 | 6.0 | 8.0 | 0.00 | 0.00 | 0.00 | 85 | 1022.0 |
| 20260906100535 | 58 | 343 | 5.0 | 8.0 | 0.00 | 0.00 | 0.00 | 84 | 1022.0 |
| 20260906100035 | 58 | 331 | 4.0 | 8.0 | 0.00 | 0.00 | 0.00 | 84 | 1022.2 |
| 20260906095530 | 58 | 339 | 4.0 | 7.0 | 0.00 | 0.00 | 0.00 | 83 | 1022.3 |
| 20260906095025 | 58 | 356 | 6.0 | 8.0 | 0.00 | 0.00 | 0.00 | 83 | 1022.0 |
| 20260906094524 | 59 | 329 | 4.0 | 8.0 | 0.00 | 0.00 | 0.00 | 83 | 1022.0 |
| 20260906094020 | 59 | 326 | 4.0 | 7.0 | 0.00 | 0.00 | 0.00 | 83 | 1021.8 |
| 20260906093516 | 58 | 3 | 5.0 | 11.0 | 0.00 | 0.00 | 0.00 | 83 | 1022.0 |
| 20260906093016 | 58 | 348 | 5.0 | 10.0 | 0.00 | 0.00 | 0.00 | 83 | 1021.8 |
| 20260906092511 | 58 | 311 | 6.0 | 7.0 | 0.00 | 0.00 | 0.00 | 83 | 1021.8 |
| 20260906092006 | 58 | 18 | 4.0 | 8.0 | 0.00 | 0.00 | 0.00 | 83 | 1022.0 |
| 20260906091502 | 58 | 314 | 7.0 | 10.0 | 0.00 | 0.00 | 0.00 | 83 | 1022.1 |
| 20260906090958 | 58 | 5 | 5.0 | 9.0 | 0.00 | 0.00 | 0.00 | 83 | 1022.2 |
| 20260906090453 | 58 | 8 | 6.0 | 8.0 | 0.00 | 0.00 | 0.00 | 83 | 1022.3 |
| 20260906085953 | 59 | 341 | 4.0 | 10.0 | 0.00 | 0.00 | 0.00 | 82 | 1022.4 |
| 20260906085452 | 59 | 340 | 9.0 | 14.0 | 0.00 | 0.00 | 0.00 | 82 | 1022.3 |
| 20260906084951 | 59 | 343 | 4.0 | 10.0 | 0.00 | 0.00 | 0.00 | 81 | 1022.4 |
| 20260906084446 | 59 | 323 | 5.0 | 8.0 | 0.00 | 0.00 | 0.00 | 80 | 1022.5 |
| 20260906083945 | 59 | 327 | 5.0 | 11.0 | 0.00 | 0.00 | 0.00 | 80 | 1022.6 |
| 20260906083441 | 59 | 331 | 4.0 | 7.0 | 0.00 | 0.00 | 0.00 | 80 | 1022.8 |
| 20260906082940 | 59 | 342 | 4.0 | 6.0 | 0.00 | 0.00 | 0.00 | 80 | 1022.7 |
| 20260906082436 | 59 | 21 | 4.0 | 8.0 | 0.00 | 0.00 | 0.00 | 80 | 1022.8 |
| 20260906081931 | 59 | 319 | 3.0 | 6.0 | 0.00 | 0.00 | 0.00 | 80 | 1022.8 |
| 20260906081426 | 59 | 316 | 4.0 | 8.0 | 0.00 | 0.00 | 0.00 | 81 | 1023.0 |
| 20260906080923 | 59 | 332 | 2.0 | 4.0 | 0.00 | 0.00 | 0.00 | 81 | 1022.9 |
| 20260906080419 | 59 | 348 | 2.0 | 3.0 | 0.00 | 0.00 | 0.00 | 81 | 1023.0 |
| 20260906075919 | 58 | 305 | 1.0 | 3.0 | 0.00 | 0.00 | 0.00 | 82 | 1023.2 |
| 20260906075414 | 58 | 285 | 1.0 | 2.0 | 0.00 | 0.00 | 0.00 | 82 | 1023.2 |
| 20260906074909 | 58 | 318 | 2.0 | 3.0 | 0.00 | 0.00 | 0.00 | 82 | 1023.3 |
| 20260906074408 | 58 | 278 | 2.0 | 7.0 | 0.00 | 0.00 | 0.00 | 81 | 1023.3 |
| 20260906073908 | 58 | 329 | 2.0 | 6.0 | 0.00 | 0.00 | 0.00 | 82 | 1023.2 |
| 20260906073402 | 58 | 313 | 2.0 | 3.0 | 0.00 | 0.00 | 0.00 | 82 | 1023.0 |
| 20260906072859 | 58 | 329 | 2.0 | 4.0 | 0.00 | 0.00 | 0.00 | 83 | 1023.2 |
| 20260906072354 | 57 | 331 | 2.0 | 2.0 | 0.00 | 0.00 | 0.00 | 83 | 1023.3 |
| 20260906071850 | 57 | 328 | 3.0 | 4.0 | 0.00 | 0.00 | 0.00 | 84 | 1023.2 |
| 20260906071345 | 57 | 337 | 2.0 | 4.0 | 0.00 | 0.00 | 0.00 | 84 | 1023.3 |
| 20260906070841 | 57 | 353 | 4.0 | 6.0 | 0.00 | 0.00 | 0.00 | 85 | 1023.0 |
| 20260906070336 | 57 | 313 | 2.0 | 4.0 | 0.00 | 0.00 | 0.00 | 85 | 1023.2 |
| 20260906065832 | 57 | 316 | 2.0 | 3.0 | 0.00 | 0.00 | 0.00 | 85 | 1023.2 |
| 20260906065326 | 57 | 334 | 5.0 | 7.0 | 0.00 | 0.00 | 0.00 | 85 | 1023.3 |
| 20260906064823 | 57 | 302 | 2.0 | 4.0 | 0.00 | 0.00 | 0.00 | 84 | 1023.5 |
| 20260906064319 | 57 | 318 | 5.0 | 9.0 | 0.00 | 0.00 | 0.00 | 84 | 1023.4 |
| 20260906063818 | 57 | 1 | 6.0 | 8.0 | 0.00 | 0.00 | 0.00 | 83 | 1023.4 |
| 20260906063314 | 58 | 3 | 2.0 | 4.0 | 0.00 | 0.00 | 0.00 | 82 | 1023.7 |
| 20260906062809 | 58 | 308 | 1.0 | 4.0 | 0.00 | 0.00 | 0.00 | 82 | 1023.8 |
| 20260906062308 | 58 | 290 | 1.0 | 2.0 | 0.00 | 0.00 | 0.00 | 82 | 1023.9 |
| 20260906061804 | 58 | 289 | 2.0 | 3.0 | 0.00 | 0.00 | 0.00 | 81 | 1023.9 |
| 20260906061300 | 58 | 301 | 1.0 | 3.0 | 0.00 | 0.00 | 0.00 | 81 | 1023.9 |
| 20260906060755 | 58 | 340 | 4.0 | 7.0 | 0.00 | 0.00 | 0.00 | 80 | 1023.8 |
| 20260906060253 | 58 | 333 | 5.0 | 7.0 | 0.00 | 0.00 | 0.00 | 79 | 1023.7 |
| 20260906055748 | 58 | 310 | 3.0 | 6.0 | 0.00 | 0.01 | 0.01 | 78 | 1023.7 |
| 20260906055243 | 59 | 335 | 2.0 | 9.0 | 0.00 | 0.01 | 0.01 | 78 | 1023.6 |
| 20260906054738 | 59 | 326 | 3.0 | 8.0 | 0.00 | 0.01 | 0.01 | 78 | 1023.5 |
| 20260906054234 | 59 | 1 | 4.0 | 9.0 | 0.00 | 0.01 | 0.01 | 77 | 1023.6 |
| 20260906053730 | 59 | 3 | 4.0 | 8.0 | 0.00 | 0.01 | 0.01 | 77 | 1023.5 |
| 20260906053226 | 59 | 327 | 4.0 | 8.0 | 0.00 | 0.01 | 0.01 | 76 | 1023.3 |
| 20260906052721 | 59 | 333 | 3.0 | 6.0 | 0.00 | 0.01 | 0.01 | 75 | 1023.3 |
| 20260906052217 | 59 | 315 | 3.0 | 8.0 | 0.00 | 0.01 | 0.01 | 74 | 1023.0 |
| 20260906051714 | 60 | 3 | 5.0 | 7.0 | 0.00 | 0.01 | 0.01 | 74 | 1023.3 |
| 20260906051213 | 60 | 341 | 4.0 | 6.0 | 0.00 | 0.01 | 0.01 | 74 | 1023.0 |
| 20260906050708 | 59 | 20 | 5.0 | 8.0 | 0.00 | 0.01 | 0.01 | 74 | 1023.2 |
| 20260906050203 | 59 | 352 | 4.0 | 8.0 | 0.00 | 0.01 | 0.01 | 74 | 1022.8 |
| 20260906045702 | 59 | 324 | 5.0 | 7.0 | 0.00 | 0.01 | 0.01 | 74 | 1022.7 |
| 20260906045157 | 59 | 333 | 4.0 | 7.0 | 0.00 | 0.01 | 0.01 | 75 | 1022.9 |
| 20260906044653 | 59 | 320 | 4.0 | 8.0 | 0.00 | 0.01 | 0.01 | 75 | 1022.7 |
| 20260906044148 | 59 | 344 | 4.0 | 7.0 | 0.00 | 0.01 | 0.01 | 75 | 1022.7 |
| 20260906043644 | 59 | 325 | 5.0 | 11.0 | 0.00 | 0.01 | 0.01 | 75 | 1022.9 |
| 20260906043139 | 59 | 17 | 8.0 | 11.0 | 0.00 | 0.01 | 0.01 | 75 | 1022.8 |
| 20260906042639 | 59 | 344 | 8.0 | 13.0 | 0.00 | 0.01 | 0.01 | 75 | 1023.5 |
| 20260906042133 | 60 | 334 | 7.0 | 9.0 | 0.00 | 0.01 | 0.01 | 74 | 1023.0 |
| 20260906041630 | 60 | 336 | 4.0 | 9.0 | 0.00 | 0.01 | 0.01 | 73 | 1022.2 |
| 20260906041130 | 60 | 359 | 6.0 | 11.0 | 0.00 | 0.01 | 0.01 | 73 | 1022.4 |
| 20260906040625 | 60 | 336 | 4.0 | 7.0 | 0.00 | 0.01 | 0.01 | 73 | 1022.2 |
| 20260906040121 | 60 | 15 | 4.0 | 11.0 | 0.00 | 0.01 | 0.01 | 72 | 1021.8 |
| 20260906035616 | 60 | 325 | 6.0 | 9.0 | 0.00 | 0.01 | 0.01 | 71 | 1022.0 |
| 20260906035111 | 60 | 7 | 6.0 | 9.0 | 0.00 | 0.01 | 0.01 | 70 | 1021.7 |
| 20260906034611 | 60 | 330 | 5.0 | 11.0 | 0.00 | 0.01 | 0.01 | 70 | 1022.1 |
| 20260906034106 | 60 | 6 | 6.0 | 9.0 | 0.00 | 0.01 | 0.01 | 69 | 1022.2 |
| 20260906033602 | 60 | 345 | 6.0 | 10.0 | 0.00 | 0.01 | 0.01 | 68 | 1022.2 |
| 20260906033057 | 61 | 10 | 8.0 | 13.0 | 0.00 | 0.01 | 0.01 | 68 | 1022.3 |
| 20260906032554 | 61 | 349 | 6.0 | 9.0 | 0.00 | 0.01 | 0.01 | 67 | 1022.5 |
| 20260906032053 | 61 | 306 | 4.0 | 10.0 | 0.00 | 0.01 | 0.01 | 67 | 1022.7 |
| 20260906031549 | 61 | 321 | 6.0 | 10.0 | 0.00 | 0.01 | 0.01 | 66 | 1022.2 |
| 20260906031044 | 61 | 344 | 4.0 | 13.0 | 0.00 | 0.01 | 0.01 | 66 | 1022.3 |
| 20260906030544 | 61 | 324 | 8.0 | 10.0 | 0.00 | 0.01 | 0.01 | 66 | 1022.2 |
| 20260906030044 | 62 | 332 | 7.0 | 9.0 | 0.00 | 0.01 | 0.01 | 65 | 1022.7 |
| 20260906025543 | 62 | 5 | 8.0 | 10.0 | 0.00 | 0.01 | 0.01 | 65 | 1022.5 |
| 20260906025042 | 62 | 303 | 5.0 | 7.0 | 0.00 | 0.01 | 0.01 | 65 | 1021.4 |
| 20260906024537 | 62 | 316 | 5.0 | 13.0 | 0.00 | 0.01 | 0.01 | 65 | 1021.1 |
| 20260906024037 | 62 | 323 | 6.0 | 9.0 | 0.00 | 0.01 | 0.01 | 66 | 1021.0 |
| 20260906023533 | 62 | 351 | 8.0 | 10.0 | 0.00 | 0.01 | 0.01 | 66 | 1020.9 |
| 20260906023028 | 62 | 300 | 4.0 | 8.0 | 0.00 | 0.01 | 0.01 | 65 | 1021.1 |
| 20260906022523 | 62 | 222 | 6.0 | 9.0 | 0.00 | 0.01 | 0.01 | 64 | 1020.9 |
| 20260906022019 | 62 | 340 | 5.0 | 8.0 | 0.00 | 0.01 | 0.01 | 64 | 1020.8 |
| 20260906021515 | 63 | 228 | 3.0 | 8.0 | 0.00 | 0.01 | 0.01 | 63 | 1021.1 |
| 20260906021008 | 63 | 281 | 2.0 | 10.0 | 0.00 | 0.01 | 0.01 | 62 | 1021.0 |
| 20260906020508 | 64 | 341 | 4.0 | 7.0 | 0.00 | 0.01 | 0.01 | 61 | 1020.8 |
| 20260906020007 | 64 | 330 | 3.0 | 10.0 | 0.00 | 0.01 | 0.01 | 60 | 1020.6 |
| 20260906015506 | 65 | 315 | 3.0 | 7.0 | 0.00 | 0.01 | 0.01 | 59 | 1020.8 |
| 20260906015007 | 65 | 275 | 4.0 | 7.0 | 0.00 | 0.01 | 0.01 | 58 | 1020.9 |
| 20260906014501 | 66 | 315 | 3.0 | 7.0 | 0.00 | 0.01 | 0.01 | 57 | 1020.8 |
| 20260906013957 | 66 | 261 | 5.0 | 8.0 | 0.00 | 0.01 | 0.01 | 57 | 1021.1 |
| 20260906013452 | 66 | 327 | 6.0 | 9.0 | 0.00 | 0.01 | 0.01 | 56 | 1020.4 |
| 20260906012943 | 67 | 15 | 2.0 | 6.0 | 0.00 | 0.01 | 0.01 | 55 | 1020.8 |
| 20260906012442 | 67 | 318 | 5.0 | 8.0 | 0.00 | 0.01 | 0.01 | 55 | 1020.9 |
| 20260906011942 | 68 | 316 | 5.0 | 8.0 | 0.00 | 0.01 | 0.01 | 54 | 1020.9 |
| 20260906011437 | 68 | 309 | 4.0 | 8.0 | 0.00 | 0.01 | 0.01 | 52 | 1021.0 |
| 20260906010932 | 69 | 272 | 2.0 | 2.0 | 0.00 | 0.01 | 0.01 | 51 | 1020.9 |
| 20260906010428 | 69 | 2 | 3.0 | 7.0 | 0.00 | 0.01 | 0.01 | 50 | 1021.0 |
| 20260906005924 | 70 | 311 | 5.0 | 9.0 | 0.00 | 0.01 | 0.01 | 49 | 1020.9 |
| 20260906005423 | 70 | 329 | 4.0 | 9.0 | 0.00 | 0.01 | 0.01 | 48 | 1020.9 |
| 20260906004922 | 71 | 356 | 6.0 | 8.0 | 0.00 | 0.01 | 0.01 | 47 | 1021.1 |
| 20260906004416 | 72 | 332 | 4.0 | 8.0 | 0.00 | 0.01 | 0.01 | 47 | 1021.0 |
| 20260906003912 | 72 | 302 | 4.0 | 7.0 | 0.00 | 0.01 | 0.01 | 44 | 1021.1 |
| 20260906003407 | 73 | 355 | 3.0 | 8.0 | 0.00 | 0.01 | 0.01 | 42 | 1020.9 |
| 20260906002902 | 73 | 289 | 4.0 | 8.0 | 0.00 | 0.01 | 0.01 | 42 | 1020.9 |
| 20260906002402 | 75 | 335 | 4.0 | 7.0 | 0.00 | 0.01 | 0.01 | 40 | 1021.2 |
| 20260906001857 | 75 | 345 | 6.0 | 9.0 | 0.00 | 0.01 | 0.01 | 40 | 1021.0 |
| 20260906001354 | 75 | 315 | 3.0 | 9.0 | 0.00 | 0.01 | 0.01 | 40 | 1021.1 |
| 20260906000853 | 76 | 283 | 4.0 | 8.0 | 0.00 | 0.01 | 0.01 | 40 | 1021.0 |
| 20260906000355 | 76 | 312 | 4.0 | 6.0 | 0.00 | 0.01 | 0.01 | 39 | 1021.1 |
| 20260905235848 | 77 | 347 | 4.0 | 6.0 | 0.00 | 0.01 | 0.01 | 38 | 1021.0 |
| 20260905235343 | 75 | 339 | 3.0 | 4.0 | 0.00 | 0.01 | 0.01 | 38 | 1021.0 |
| 20260905234838 | 75 | 14 | 1.0 | 2.0 | 0.00 | 0.01 | 0.01 | 36 | 1021.1 |
| 20260905234333 | 76 | 356 | 3.0 | 4.0 | 0.00 | 0.01 | 0.01 | 35 | 1021.0 |
| 20260905233829 | 76 | 273 | 0.0 | 2.0 | 0.00 | 0.01 | 0.01 | 36 | 1021.0 |
| 20260905233323 | 76 | 36 | 2.0 | 7.0 | 0.00 | 0.01 | 0.01 | 35 | 1021.0 |
| 20260905232822 | 76 | 51 | 4.0 | 7.0 | 0.00 | 0.01 | 0.01 | 35 | 1021.1 |
| 20260905232319 | 75 | 292 | 1.0 | 2.0 | 0.00 | 0.01 | 0.01 | 36 | 1021.2 |
| 20260905231814 | 76 | 329 | 2.0 | 3.0 | 0.00 | 0.01 | 0.01 | 36 | 1021.2 |
| 20260905231309 | 79 | 292 | 1.0 | 4.0 | 0.00 | 0.01 | 0.01 | 34 | 1021.1 |
| 20260905230806 | 79 | 325 | 1.0 | 4.0 | 0.00 | 0.01 | 0.01 | 33 | 1021.0 |
| 20260905230303 | 78 | 247 | 0.0 | 2.0 | 0.00 | 0.01 | 0.01 | 33 | 1021.0 |
| 20260905225803 | 79 | 225 | 1.0 | 2.0 | 0.00 | 0.01 | 0.01 | 32 | 1021.1 |
| 20260905225258 | 78 | 303 | 1.0 | 6.0 | 0.00 | 0.01 | 0.01 | 33 | 1021.1 |
| 20260905224757 | 79 | 326 | 3.0 | 7.0 | 0.00 | 0.01 | 0.01 | 33 | 1021.0 |
| 20260905224253 | 78 | 304 | 2.0 | 6.0 | 0.00 | 0.01 | 0.01 | 33 | 1020.9 |